Location: Colonia Mina de C?rbuni
(46.1667°N, 22.7167°E)
Time: 18:13:32
(UTC+00:00)

NOAA 15 - Pass Details

Date: 04 February 2023
Orbit: 796 x 812 km, 98.6° (Epoch: 30 March)

Event Time Altitude Azimuth Distance (km) Brightness Sun altitude
Rises 17:07:55 0° 160° (SSE) 3,292 7.6 -15.8°
Reaches altitude 10° 17:10:13 10° 159° (SSE) 2,368 6.9 -16.2°
Maximum altitude 17:15:27 80° 73° (ENE) 821 4.5 -17.1°
Drops below altitude 10° 17:20:45 10° 348° (NNW) 2,395 7.1 -18.0°
Sets 17:23:06 0° 347° (NNW) 3,333 7.9 -18.4°
